Flag Weather past 2 weeks in Anaheim, California, U.S.A.

Now
66 °F

Sunny.


Feels Like: 66 °F
Forecast: 55 / 70 °F
Wind: 3 mph from East

Location: Fullerton Municipal Airport

Current Time: Nov 21, 2014 at 11:17:01 AM

Latest Report: Nov 21, 2014 at 9:53 AM


Visibility: 10 mi

Pressure: 29.97 "Hg

Humidity: 56%

Dew point: 50 °F

Location of AnaheimLocation

Historic Weather in Anaheim — Graph

°F

Anaheim temperature yesterday

Maximum temperature yesterday: 71 °F (at 11:53 AM)
Minimum temperature yesterday: 53 °F (at 3:53 AM)
Average temperature yesterday: 62 °F

Past Weeks' High & Low Weather Summary

 TemperatureHumidityPressure
High92 °F (Nov 6, 12:53 PM)97% (Nov 9, 5:53 AM)30.16 "Hg (Nov 9, 5:53 AM)
Low53 °F (Nov 18, 4:53 AM)3% (Nov 16, 2:53 PM)29.80 "Hg (Nov 9, 3:53 PM)
Average66 °F53%30.01 "Hg
* Reported Nov 6 9:53 AM — Nov 21 9:53 AM, Anaheim, Weather by CustomWeather, © 2014

Note: Actual official high and low records may vary slightly from our data, if they occured in-between our weather recording intervals... More about our weather records

Advertising

Anaheim weather history for previous 24 hours

 ConditionsComfort  
Time TempWeatherWind HumidityBarometerVisibility
9:53 AM
Nov 21
66 °FSunny.3 mph56%29.97 "Hg10 mi
8:53 AM62 °FSunny.No wind67%29.97 "Hg10 mi
7:53 AM60 °FSunny.3 mph78%29.96 "Hg10 mi
6:53 AM54 °FSunny.No wind90%29.93 "Hg10 mi
5:53 AM55 °FClear.No wind87%29.93 "Hg10 mi
4:53 AM55 °FClear.No wind90%29.91 "Hg10 mi
3:53 AM57 °FPassing clouds.No wind87%29.93 "Hg10 mi
2:53 AM59 °FPassing clouds.No wind81%29.93 "Hg10 mi
1:53 AM60 °FPartly cloudy.No wind80%29.94 "Hg10 mi
12:53 AM61 °FMostly cloudy.No wind78%29.96 "Hg10 mi
11:53 PM
Nov 20
61 °FPassing clouds.No wind78%29.96 "Hg10 mi
10:53 PM64 °FPassing clouds.3 mph73%29.95 "Hg10 mi
9:53 PM64 °FMostly cloudy.No wind75%29.98 "Hg10 mi
8:53 PM64 °FMostly cloudy.No wind78%29.98 "Hg10 mi
7:53 PM64 °FOvercast.No wind75%29.99 "Hg10 mi
6:53 PM63 °FClear.3 mph75%29.98 "Hg10 mi
5:53 PM64 °FClear.6 mph73%30.00 "Hg10 mi
4:53 PM65 °FPassing clouds.5 mph70%30.00 "Hg10 mi
3:53 PM67 °FScattered clouds.8 mph63%29.99 "Hg10 mi
2:53 PM69 °FScattered clouds.7 mph59%30.00 "Hg10 mi
1:53 PM70 °FScattered clouds.6 mph53%30.00 "Hg10 mi
12:53 PM69 °FScattered clouds.3 mph57%30.02 "Hg10 mi
11:53 AM71 °FScattered clouds.5 mph51%30.05 "Hg10 mi
Weather by CustomWeather, © 2014

See weather overviewHow to use our weather pages